Wind_Speed
24 25 26 29 30 31 32 33 33 32 31 30 30 30 30 30 30 31 32 32 32 32 32 31 31 31 31 32 33 33 34 35 36 37 37 37 38 38 38 39 39 39 39 40 40 40 40 40 41 41 41 41 41 41 41 42 42 43 43 43 44 44 44 45 45 46 46 47 47 47 47 47 48 48 48 48 48 48 49 49 49 49 48 48 48 47
23 25 27 29 31 32 33 34 34 33 32 31 31 31 31 31 31 31 31 31 31 30 30 30 30 31 31 32 33 34 35 36 36 37 38 38 38 38 39 39 39 39 39 40 40 40 40 40 41 41 41 41 41 42 42 43 43 43 44 45 45 45 46 46 47 47 47 48 48 48 48 48 48 48 48 48 48 48 48 48 48 48 47 47 46 46
25 26 27 29 30 31 32 33 34 34 33 32 32 32 32 32 31 31 30 30 29 29 29 29 30 30 31 32 33 34 35 36 37 38 38 38 38 38 38 39 39 39 39 40 40 40 41 41 41 42 42 42 42 43 43 43 44 45 45 46 46 46 47 47 47 47 48 48 48 48 48 48 48 47 48 48 48 48 47 47 47 46 46 45 44 44
28 27 27 28 29 30 31 31 32 32 31 31 31 31 31 30 30 29 29 28 27 27 28 29 30 30 31 32 34 35 36 37 37 38 38 38 38 38 38 38 39 39 39 40 40 41 42 42 43 43 43 43 44 44 44 45 45 46 46 46 47 47 47 47 47 47 47 47 47 47 47 47 46 46 46 46 46 46 45 45 44 44 43 42 42 41
29 27 26 26 27 28 29 29 28 28 28 28 28 29 29 28 28 27 27 26 26 27 28 29 30 31 32 34 35 35 36 37 37 37 38 38 38 38 38 38 39 39 40 41 42 42 43 44 44 44 45 45 45 45 45 45 46 46 46 46 46 46 46 46 46 46 45 45 45 45 45 44 44 44 44 43 43 43 42 41 41 40 39 39 38 38
28 25 24 25 25 26 26 26 25 24 23 24 25 26 26 26 25 25 25 26 26 27 28 30 31 32 33 34 35 36 36 37 37 37 37 37 37 38 38 39 39 40 41 42 43 44 45 45 45 45 46 45 45 45 45 45 45 44 44 44 44 44 43 43 43 43 42 42 42 42 41 41 41 40 40 39 39 38 38 37 36 36 35 35 35 35
26 24 23 23 23 24 23 23 22 21 20 21 22 23 24 24 24 24 25 26 28 29 30 31 32 33 34 35 35 36 36 37 37 37 37 37 37 38 39 40 40 41 42 43 44 45 45 46 45 45 45 44 44 43 43 42 42 41 41 40 40 40 40 39 39 39 38 38 38 37 37 37 36 36 35 35 34 34 33 33 33 32 32 32 32 32
24 23 22 21 21 21 20 20 20 19 19 20 21 22 22 23 24 25 27 28 29 30 31 32 32 33 34 35 35 36 36 36 37 37 37 38 38 39 40 41 42 42 43 44 44 45 44 44 44 43 42 41 40 39 39 38 37 37 36 36 35 35 35 34 34 34 33 33 33 33 32 32 32 31 31 31 30 30 30 30 30 30 30 30 31 31
21 21 21 21 20 19 18 19 19 20 20 21 21 22 23 24 26 27 28 29 30 30 31 32 32 33 34 35 35 36 36 37 37 38 38 39 39 40 41 41 42 42 43 43 43 42 42 41 40 38 37 36 35 34 33 33 32 32 31 31 30 30 30 29 29 29 29 29 28 28 28 28 28 28 28 28 28 28 28 29 29 29 29 30 30 30
21 20 20 21 20 20 19 19 20 21 21 22 23 24 24 26 27 28 29 30 31 31 31 32 32 33 34 35 36 37 37 38 38 39 39 39 40 40 41 41 41 41 40 40 39 38 37 36 34 33 32 31 30 29 28 28 27 27 26 26 25 25 25 25 25 25 25 25 25 25 25 25 25 26 26 26 27 27 27 28 28 28 28 29 29 29
20 20 20 21 21 21 21 21 22 23 23 24 24 25 26 27 28 29 30 31 31 31 32 32 33 33 34 35 37 38 38 39 39 40 40 40 40 39 39 38 37 37 36 35 34 32 31 30 28 27 26 25 24 24 23 23 23 22 22 22 22 22 22 22 22 23 23 23 23 24 24 24 25 25 25 26 26 26 27 27 27 27 27 27 28 28
20 21 21 21 21 22 22 23 24 24 25 25 26 27 28 29 29 30 30 30 31 32 32 33 34 34 35 36 37 39 39 39 39 39 39 39 38 37 35 34 32 31 30 29 28 26 25 24 22 22 21 21 20 20 20 20 20 20 20 21 21 21 21 22 22 23 23 23 24 24 25 25 25 25 26 26 26 26 26 27 27 27 27 27 27 27
20 21 21 21 22 23 23 24 24 25 26 26 27 28 29 30 30 30 30 31 31 32 33 34 34 36 37 38 38 39 39 38 37 37 36 35 34 32 30 28 27 25 24 23 22 21 19 19 18 18 18 18 18 18 19 19 20 20 21 21 21 22 22 23 24 24 24 25 25 25 26 26 26 26 26 26 26 26 26 26 26 26 26 26 26 26
20 21 21 22 23 24 24 25 26 27 27 28 28 29 30 30 31 31 31 32 32 33 34 34 35 36 38 39 39 39 37 35 33 32 31 30 28 26 24 23 21 20 19 18 17 16 15 15 15 16 16 17 18 19 19 20 21 21 22 23 23 24 24 25 25 26 26 26 26 26 26 27 26 26 26 26 26 26 26 26 26 26 26 26 26 26
21 21 22 23 24 25 26 27 28 28 29 29 30 30 31 31 32 32 32 32 33 34 35 35 36 36 37 37 37 36 33 30 28 26 25 24 23 21 19 17 16 15 15 14 14 14 14 14 15 16 17 18 19 20 21 22 22 23 24 24 25 25 26 26 26 27 27 27 27 27 27 27 27 27 26 26 26 26 26 26 26 26 26 26 26 26
22 23 24 25 26 27 28 28 29 29 30 30 31 31 32 32 33 34 34 34 34 35 35 35 35 34 34 34 33 31 27 24 22 20 20 20 19 16 14 13 13 12 12 13 13 13 14 14 15 17 18 19 20 21 22 23 23 24 25 25 26 26 27 27 27 28 28 28 28 28 27 27 27 27 26 26 26 26 26 26 26 26 26 26 26 26
24 25 26 27 28 28 29 30 30 30 31 31 32 33 33 34 34 35 35 35 35 34 34 33 31 30 29 30 29 26 23 20 17 16 16 16 15 13 11 11 11 11 12 12 13 14 14 15 16 17 18 19 21 22 22 23 24 25 25 26 26 27 27 28 28 28 28 28 28 28 28 27 27 26 26 26 26 26 26 26 26 26 26 26 26 26
26 27 27 28 29 29 30 31 31 32 32 33 34 34 35 35 35 35 35 34 33 32 31 29 27 25 24 25 24 22 19 16 14 13 12 13 12 11 10 10 10 11 12 13 13 14 15 16 17 18 19 20 21 22 23 24 24 25 26 26 27 28 28 28 28 29 29 29 29 28 28 28 27 27 26 26 26 26 26 26 26 26 26 26 26 26
28 29 29 29 30 31 32 33 33 34 34 34 35 35 35 36 35 35 33 32 30 29 27 25 23 22 21 21 20 18 15 13 11 10 10 11 11 11 10 10 11 12 13 13 14 14 15 16 17 18 19 20 21 22 23 24 25 25 26 27 27 28 28 29 29 29 29 29 29 29 28 28 27 27 27 27 27 27 27 27 27 27 26 26 26 26
30 30 31 31 32 32 33 34 34 34 34 35 35 35 35 34 34 33 31 29 27 25 24 22 20 19 18 18 17 15 12 11 9 9 9 10 11 11 11 11 12 13 13 14 14 15 15 16 17 18 19 20 22 23 23 24 25 26 27 27 28 28 29 29 29 29 29 29 29 29 29 28 28 28 27 27 27 27 27 27 27 27 27 27 26 26
31 32 33 33 33 33 34 35 35 35 34 34 34 33 33 32 31 29 28 26 24 22 21 19 17 16 16 15 15 13 11 10 9 8 8 10 11 12 12 12 13 13 14 14 15 15 15 16 17 18 19 21 22 23 24 25 25 26 27 27 28 28 29 29 29 29 29 29 29 29 29 29 29 28 28 28 28 28 28 27 27 27 27 27 27 27
33 34 34 35 34 34 34 35 34 34 34 33 32 31 30 29 28 26 24 23 21 19 18 16 15 14 14 14 13 12 10 10 9 9 9 10 11 13 13 13 13 13 14 14 15 15 16 16 17 19 20 21 22 23 24 25 25 26 27 27 28 28 28 29 29 29 29 29 29 30 29 29 29 29 29 28 28 28 28 28 28 28 28 28 27 27
34 35 35 35 35 34 34 34 34 33 33 31 30 29 28 26 24 22 21 20 19 17 15 14 13 13 13 12 12 12 11 11 11 11 10 10 11 13 13 13 14 14 14 14 15 15 16 16 17 19 20 21 22 23 24 24 25 26 26 27 27 28 28 28 29 29 29 30 30 30 30 30 30 29 29 29 29 29 29 29 29 28 28 28 28 27
34 35 35 34 34 34 33 33 32 32 31 30 28 27 25 23 21 20 18 18 16 15 14 13 12 12 12 12 12 13 13 13 13 12 11 11 11 12 13 14 14 14 14 14 14 15 15 16 17 18 20 21 22 22 23 23 24 25 26 26 27 27 27 28 28 29 29 30 30 30 30 30 30 30 29 29 29 29 29 29 29 29 29 28 28 28
34 34 34 34 33 33 32 31 31 30 29 27 26 24 22 20 19 17 16 16 15 13 12 12 12 12 12 12 13 14 15 15 15 14 12 11 11 12 13 13 14 13 13 14 14 14 15 15 16 17 19 20 21 21 22 22 23 24 25 25 26 27 27 28 28 29 29 29 30 30 30 30 30 30 30 30 30 29 29 29 29 29 29 29 28 28
33 33 33 32 32 31 31 30 29 28 26 25 23 22 20 19 17 16 15 14 13 12 11 11 12 12 13 13 14 15 16 16 16 15 13 12 11 12 13 14 14 13 13 13 13 13 13 14 15 16 18 19 19 20 20 21 22 23 24 25 25 26 27 27 28 29 29 29 30 30 30 30 30 30 30 30 30 30 30 30 30 30 29 29 29 28
32 31 31 30 30 29 29 28 27 25 24 23 21 20 19 17 16 15 14 14 13 12 11 12 12 13 13 14 14 15 16 17 16 15 14 13 12 12 13 14 14 13 13 12 12 12 12 13 14 15 16 17 17 18 19 20 21 22 23 24 25 26 26 27 28 28 29 30 30 30 30 30 30 30 30 30 30 30 30 30 30 30 30 30 29 28
30 30 29 29 28 28 27 26 25 23 22 20 19 18 17 16 15 14 14 13 13 12 12 12 13 13 14 14 14 15 16 17 17 16 15 14 13 13 13 14 14 14 13 12 11 11 11 12 13 14 14 15 16 17 18 19 20 21 22 23 24 25 26 27 28 28 29 29 30 30 30 30 30 30 30 31 31 31 31 31 31 31 30 30 29 28
29 28 28 28 27 27 26 25 24 22 20 19 18 16 16 15 14 14 14 14 13 13 13 13 14 14 14 14 14 15 16 18 18 17 16 15 14 13 13 14 14 14 14 12 11 10 10 11 12 13 13 14 15 16 17 18 19 20 21 22 23 24 25 26 27 28 28 29 29 29 30 30 30 30 30 30 30 30 30 31 31 31 31 30 29 28
27 26 26 26 26 25 25 24 23 21 20 18 17 16 15 14 14 14 14 14 14 14 14 14 14 14 14 14 14 15 16 18 18 17 16 16 14 13 13 14 14 15 15 14 12 10 9 10 11 12 13 14 15 16 17 18 19 20 21 22 22 23 25 26 27 27 28 28 29 29 29 29 30 30 30 30 30 30 30 30 30 30 30 30 29 28
25 25 24 24 24 24 24 23 22 21 19 17 16 15 15 14 14 14 14 14 14 14 14 14 14 14 14 14 14 14 16 18 18 18 17 16 15 13 13 14 14 15 16 16 14 12 10 9 10 12 13 14 15 16 17 18 19 20 21 21 22 23 24 25 26 27 28 28 28 29 29 29 29 29 29 29 29 29 29 30 30 30 29 29 29 28
24 24 23 23 23 23 23 22 21 20 18 17 16 15 15 14 14 15 15 15 15 15 15 14 14 14 14 14 14 14 15 18 18 18 17 16 15 14 14 14 15 15 16 17 17 16 13 11 11 12 13 14 15 16 18 19 20 20 21 21 22 23 24 25 26 27 27 28 28 28 29 29 29 29 29 29 29 29 29 29 29 29 29 29 28 28
23 23 23 23 23 22 22 21 20 19 18 17 16 15 15 15 15 15 15 15 15 15 15 15 15 14 14 14 14 15 16 17 18 18 17 17 16 15 14 15 15 16 17 18 18 18 18 16 14 14 14 14 15 17 18 19 20 21 22 22 22 23 24 25 26 27 27 28 28 28 29 29 29 29 29 29 29 29 29 29 29 29 29 29 28 28
22 22 22 22 22 22 21 21 20 19 18 17 16 16 16 16 16 16 15 15 15 15 15 15 15 15 14 14 14 15 16 17 18 18 18 17 16 15 15 16 16 17 18 18 19 20 20 20 19 18 17 16 16 17 18 20 21 21 22 22 23 23 24 25 26 27 28 28 28 28 28 29 29 29 29 29 29 29 28 28 29 29 29 29 29 28
22 22 22 22 22 21 21 20 19 19 18 17 17 16 16 16 16 16 16 16 15 15 15 15 15 15 15 14 15 15 16 17 18 18 18 18 17 17 16 17 17 18 19 19 20 21 21 21 21 21 21 19 18 18 19 20 21 22 22 22 23 24 24 25 26 27 28 28 28 28 29 29 29 29 28 28 28 28 28 28 28 28 28 28 28 28
22 22 22 22 21 21 20 20 19 19 18 17 17 17 17 17 16 16 16 16 16 15 15 15 15 15 15 15 15 15 16 17 18 18 19 19 18 18 18 18 19 20 21 21 22 22 23 23 23 23 23 23 21 20 20 21 22 22 22 23 23 24 25 26 26 27 28 28 28 28 29 29 29 28 28 28 27 27 27 27 27 28 28 28 28 28
22 22 22 22 21 21 20 20 19 19 18 18 18 17 17 17 17 16 16 16 16 16 16 15 15 15 15 15 15 15 16 17 18 18 19 19 19 20 20 20 20 21 22 23 23 24 24 25 25 25 25 25 25 24 23 22 22 23 23 24 24 24 25 26 27 27 28 28 28 28 28 28 28 28 27 27 27 27 27 27 27 27 27 27 27 27
23 22 22 22 21 20 20 19 19 19 18 18 18 18 17 17 17 17 17 17 16 16 16 16 16 16 15 15 15 16 16 17 18 19 20 20 21 21 21 21 22 23 24 25 25 26 26 26 27 26 26 26 26 26 26 25 25 24 24 24 24 25 25 26 27 27 28 28 28 28 28 28 28 28 27 27 26 26 26 26 27 27 27 27 27 27
23 23 22 22 21 20 20 19 19 19 19 18 18 18 18 18 17 17 17 17 17 17 17 17 16 16 16 16 16 16 17 18 19 20 21 21 22 22 23 23 24 24 25 26 27 27 28 28 28 28 28 28 28 27 27 27 27 27 26 26 25 25 25 26 26 27 27 28 28 28 28 28 27 27 27 26 26 26 26 26 26 27 27 27 27 26
23 23 22 22 21 21 20 20 20 19 19 19 18 18 18 18 18 18 18 18 18 18 17 17 17 16 16 16 17 17 18 19 20 21 22 22 23 24 24 25 25 26 26 27 28 28 29 29 29 30 30 30 30 29 29 28 28 28 28 28 27 26 25 25 26 26 27 27 27 27 27 27 27 27 26 26 26 26 26 26 26 26 27 27 26 26
23 23 22 22 22 21 20 20 20 20 19 19 19 19 19 19 19 19 18 18 18 18 18 18 17 17 17 17 17 18 19 20 21 22 23 24 24 25 26 26 27 27 28 28 29 29 29 30 30 30 31 31 31 31 30 29 29 29 29 29 28 27 26 25 25 26 26 26 27 27 27 27 27 27 26 26 26 26 26 26 26 27 27 27 27 27
23 23 23 22 22 21 21 20 20 20 19 19 19 19 19 19 19 19 19 19 19 19 19 18 18 18 17 17 18 19 20 21 22 23 24 25 26 26 27 28 28 29 29 29 29 29 30 30 31 31 32 32 32 32 31 30 30 29 30 29 29 28 26 25 25 25 26 26 26 27 27 27 27 27 26 26 26 26 26 26 27 27 27 27 28 27
24 23 23 22 22 22 21 21 20 20 20 20 20 20 20 20 20 20 20 19 20 19 19 19 19 18 18 18 18 19 20 22 23 24 24 25 26 27 28 29 29 30 30 30 30 30 30 31 31 32 32 33 33 33 32 31 30 29 29 29 29 28 27 25 25 25 25 26 26 27 27 28 28 27 27 26 26 26 26 26 27 27 27 27 28 28
24 23 23 23 22 22 22 21 21 21 21 20 20 21 21 21 20 20 20 20 20 20 20 20 20 19 19 19 19 19 21 22 23 24 25 26 27 28 28 29 30 30 30 30 31 31 31 31 32 32 33 33 33 33 32 31 30 29 29 29 29 28 28 27 26 26 26 26 26 27 28 28 28 28 27 27 27 27 27 27 27 27 27 27 27 28
24 23 23 23 23 22 22 22 22 21 21 21 21 21 21 21 21 21 21 21 21 21 21 21 21 20 20 20 20 20 21 22 23 24 25 26 27 28 28 29 29 30 30 31 31 32 32 32 32 33 33 33 33 33 32 31 31 30 29 28 28 28 28 27 27 27 27 27 27 27 28 28 28 28 28 27 27 27 27 27 26 26 26 26 26 27
24 23 23 23 23 23 23 22 22 22 22 22 22 22 22 22 22 21 21 21 21 21 21 21 21 21 21 21 21 21 21 22 22 24 25 26 26 27 28 28 29 30 31 31 32 33 33 33 33 34 33 33 33 32 32 31 31 30 29 29 29 28 28 28 28 28 28 28 28 28 28 28 28 28 28 28 27 27 27 26 26 26 25 25 25 25
24 24 24 23 23 23 23 23 23 22 22 22 22 22 22 22 22 22 22 22 22 22 22 22 22 22 22 22 22 22 22 22 23 23 24 25 26 26 27 28 29 30 31 32 33 33 34 34 34 34 34 34 33 32 31 31 31 31 30 29 29 29 28 28 28 28 29 29 28 28 28 28 28 28 28 28 28 27 26 26 25 25 24 24 24 24
24 24 24 24 24 24 24 23 23 23 23 23 23 23 23 22 22 22 22 22 23 23 23 23 23 23 23 23 23 23 23 23 23 23 24 24 25 26 27 28 29 30 31 32 33 34 34 34 34 34 33 33 33 32 31 31 30 30 30 30 29 29 29 29 29 29 29 29 29 29 29 28 29 29 29 28 28 27 26 25 24 24 23 23 23 23
24 24 24 24 24 24 24 24 24 23 23 23 23 23 23 23 23 23 23 23 23 23 23 23 23 23 23 24 24 24 24 24 24 24 24 25 25 26 27 28 30 31 32 33 33 34 34 33 33 33 32 32 32 32 31 31 30 30 30 30 30 30 30 30 30 30 30 30 29 29 29 29 29 29 29 29 28 27 26 25 24 24 23 23 23 23
23 24 24 24 24 24 24 24 24 24 24 23 23 23 23 23 23 23 23 24 24 24 24 24 24 24 24 24 24 25 25 25 25 25 25 26 27 27 28 29 30 32 32 33 33 34 33 33 32 32 31 31 32 32 32 31 30 30 30 30 30 31 31 31 31 30 30 30 30 30 29 29 29 30 30 30 30 29 28 27 26 25 24 24 23 23
23 23 23 23 24 24 24 24 24 24 24 24 24 24 23 23 23 24 24 24 24 24 25 25 25 25 25 25 25 25 25 26 26 26 26 27 28 29 30 31 32 32 33 33 34 33 33 33 32 31 30 30 31 32 32 32 31 31 30 30 31 31 32 32 32 31 31 31 30 30 30 30 30 30 31 31 31 31 30 29 28 27 25 25 25 24
Wind_Direction
273 275 277 278 279 280 281 282 282 283 284 285 284 282 279 277 275 274 273 272 272 272 273 273 273 273 273 274 275 276 277 278 279 280 281 282 283 283 284 285 285 286 287 287 288 288 287 287 286 285 285 284 283 283 283 283 283 283 283 283 283 283 282 282 282 282 282 282 282 282 282 282 282 282 282 281 281 281 280 280 279 279 279 278 278 277
289 285 283 281 280 280 280 280 281 281 281 282 282 281 280 278 276 274 272 272 271 272 272 272 273 274 275 276 277 278 279 280 281 281 282 283 284 284 285 286 287 288 288 288 288 288 287 286 286 285 284 284 284 284 284 284 284 284 283 283 283 282 282 282 282 282 282 282 282 282 282 282 281 281 281 280 280 280 279 279 279 278 278 278 277 277
299 293 287 283 280 278 277 277 278 278 278 278 278 278 277 275 273 272 271 270 270 271 272 273 274 275 276 277 278 279 280 280 281 282 283 284 285 286 287 288 288 289 289 289 288 288 287 286 286 286 285 285 285 285 284 284 283 283 282 282 282 282 282 282 282 282 282 282 281 281 281 281 280 280 280 279 279 278 278 278 278 277 277 276 276 275
301 298 292 288 283 279 275 273 273 273 274 274 275 276 275 274 272 271 270 270 271 272 273 275 276 277 277 278 278 279 280 280 281 282 284 285 286 287 288 289 289 289 289 289 288 288 288 287 287 287 286 286 285 284 283 283 282 282 282 281 281 281 281 281 281 281 281 281 281 280 280 280 279 279 278 278 277 277 277 276 276 276 276 275 275 274
299 299 295 290 284 279 275 271 268 267 268 270 272 273 274 273 272 271 271 272 273 275 276 277 277 278 278 278 279 280 281 282 283 284 286 287 288 289 289 290 290 290 289 289 289 288 288 288 287 286 286 285 284 283 282 282 282 282 281 281 281 281 281 281 281 281 280 280 280 279 279 278 278 277 277 276 276 276 276 275 275 275 275 275 274 274
298 298 294 289 282 276 273 268 265 263 265 267 270 271 272 272 271 272 274 275 277 277 278 278 278 279 279 280 281 282 283 284 285 287 288 289 290 290 290 290 290 290 290 290 289 288 288 287 286 285 285 284 283 283 282 282 282 282 282 282 281 281 281 281 280 280 280 279 279 278 278 277 277 276 276 276 275 275 275 275 275 275 275 275 275 275
295 295 292 286 280 275 270 266 265 265 266 268 269 271 271 272 273 274 276 277 278 278 279 279 280 281 282 283 284 285 286 287 288 289 290 290 291 291 291 291 291 290 290 289 288 288 287 286 285 284 284 283 283 283 283 283 283 282 282 282 281 281 280 280 280 279 278 278 277 277 276 276 276 275 275 275 275 275 275 275 276 276 276 276 276 276
292 291 288 281 275 271 269 267 268 269 271 271 272 273 274 275 275 276 277 278 278 279 281 282 283 284 286 287 288 288 289 289 290 290 291 291 291 291 291 291 290 290 289 288 287 287 286 285 284 284 284 284 284 284 284 283 283 283 282 282 281 281 280 279 279 278 277 277 276 276 275 275 275 275 275 276 276 276 276 276 276 276 276 276 276 275
287 285 282 277 272 269 270 271 272 273 274 275 276 277 278 278 279 279 280 280 281 283 284 285 287 288 289 289 289 289 289 290 290 291 291 291 291 291 291 290 290 289 288 287 287 286 285 284 284 284 284 285 285 285 284 284 283 283 282 282 281 280 280 279 278 277 277 276 276 276 276 276 276 276 276 277 277 277 277 277 276 276 276 276 275 275
284 281 277 275 273 272 273 274 275 275 276 277 278 279 280 281 282 282 283 284 285 286 287 288 289 289 290 290 290 290 290 290 291 291 291 291 291 290 290 289 289 288 287 286 286 285 285 285 285 285 285 286 285 285 285 284 283 283 282 282 281 281 280 279 279 278 278 278 278 278 278 278 278 279 279 279 279 278 278 278 278 277 277 277 276 276
282 279 275 273 273 274 275 276 277 278 278 279 280 281 281 282 283 284 285 287 288 289 289 289 289 290 290 290 290 290 291 291 291 291 291 291 291 290 289 289 288 287 286 285 285 284 285 285 286 286 287 286 286 286 285 284 284 284 283 283 282 282 282 282 282 282 282 283 283 283 283 283 283 283 283 283 283 282 282 281 281 280 280 279 278 277
280 278 276 275 275 277 278 279 280 281 282 282 283 284 284 284 285 286 287 288 289 290 290 290 291 290 290 290 290 290 291 291 291 292 291 291 290 290 289 288 287 286 285 284 284 285 285 286 287 287 288 287 287 287 286 286 286 286 286 286 286 287 287 288 288 288 289 289 289 290 290 290 289 289 289 288 288 287 286 286 285 284 283 281 280 279
280 279 279 280 281 282 283 283 284 285 285 286 286 286 286 287 288 289 289 290 290 290 291 291 291 291 291 290 290 290 290 290 291 291 291 290 289 289 288 287 285 284 284 284 285 286 287 289 289 289 290 290 290 290 290 290 291 291 292 292 293 294 294 295 295 296 296 296 296 296 295 295 294 294 293 293 292 291 290 289 288 287 285 284 282 281
283 284 285 286 286 286 286 287 287 287 288 288 288 289 289 290 290 290 291 291 291 291 291 290 290 290 290 290 289 289 290 290 290 290 289 288 287 286 286 285 284 284 285 286 287 289 291 292 292 292 293 293 293 294 295 296 296 297 298 299 299 300 300 300 300 300 300 300 299 299 298 298 297 297 296 295 294 293 292 291 290 289 287 285 284 282
287 288 288 288 288 288 288 288 289 289 289 290 290 290 291 291 291 291 291 290 290 290 290 290 290 290 289 289 289 289 290 290 289 288 287 285 284 284 284 284 284 285 287 289 291 293 295 295 296 296 297 297 298 298 299 300 301 302 302 303 303 303 303 302 302 302 301 300 300 299 299 299 298 298 297 297 296 295 294 293 291 290 288 287 285 283
289 289 289 289 289 289 289 289 290 290 291 291 291 290 290 290 290 290 290 290 290 290 290 290 290 290 289 289 289 289 290 289 287 285 283 282 282 283 284 285 286 288 290 292 294 296 298 298 298 299 300 300 301 301 302 303 303 303 303 303 303 303 302 302 301 301 300 300 300 300 300 300 300 299 299 299 298 297 295 294 292 291 289 287 285 283
290 289 289 289 289 289 290 290 290 291 291 291 290 290 290 290 290 291 291 291 291 291 290 290 289 289 288 288 289 289 289 287 284 281 279 278 280 284 286 288 288 290 293 294 296 298 300 300 300 301 301 301 302 302 302 302 302 302 302 301 301 301 300 300 300 300 300 300 300 300 300 301 301 301 301 300 299 298 297 295 293 291 289 287 285 283
290 290 290 290 290 290 291 291 291 291 291 291 291 291 291 291 292 292 292 293 292 292 291 290 289 288 285 283 284 287 287 284 280 277 276 278 281 287 291 292 292 293 295 296 298 299 301 301 301 301 301 300 300 300 299 299 299 299 299 299 299 298 298 298 299 299 299 300 300 301 301 302 302 302 302 301 300 299 297 296 294 292 290 288 286 283
291 291 291 291 291 291 291 291 291 292 292 292 292 292 293 293 293 294 294 294 293 292 291 290 288 286 283 280 280 283 283 280 278 277 278 281 286 291 296 296 295 295 296 297 298 300 300 299 299 299 298 297 297 297 296 296 297 297 297 297 297 297 297 298 298 298 299 300 300 301 302 302 303 303 303 302 301 300 298 297 295 293 291 289 286 284
292 292 291 291 291 291 291 291 292 292 292 292 292 293 293 294 295 295 295 294 293 291 290 288 285 282 279 276 276 278 278 277 277 279 281 285 289 293 296 296 295 295 296 296 297 298 298 297 296 296 295 294 294 294 294 295 295 295 295 296 296 296 297 297 298 299 299 300 301 301 302 302 303 303 302 302 301 300 299 297 296 294 292 290 288 285
292 292 291 291 291 291 291 292 292 292 292 293 293 294 294 294 294 294 294 292 290 288 286 283 279 275 273 271 272 274 276 276 277 278 281 284 287 290 293 293 293 293 294 295 295 296 295 295 294 294 293 293 293 293 293 294 294 295 295 295 296 296 297 297 298 299 300 300 301 301 302 302 303 303 303 302 301 301 300 298 297 295 294 291 289 287
293 292 292 292 292 293 293 293 293 293 293 293 293 293 293 293 293 292 290 287 285 282 279 275 272 269 268 268 270 273 275 276 275 275 277 280 283 287 289 290 290 291 292 292 293 294 293 293 293 292 292 292 292 292 293 294 294 294 295 295 296 296 297 298 298 299 300 300 300 301 302 302 303 303 303 302 302 301 300 299 298 297 295 293 291 289
294 294 294 294 294 294 294 294 294 294 294 294 293 293 292 291 290 288 285 282 279 276 273 270 267 266 266 268 271 274 276 276 276 275 276 277 281 285 287 288 289 290 290 291 292 293 293 292 292 292 291 291 292 292 293 294 294 294 295 295 296 297 297 298 298 299 299 300 300 301 302 302 302 302 302 302 302 301 300 300 298 297 296 294 292 290
295 295 296 296 296 295 295 295 295 295 294 294 294 293 292 290 288 284 280 277 274 271 268 265 264 265 267 270 273 276 277 277 277 277 278 279 280 283 285 287 289 290 290 291 292 292 292 291 290 290 290 290 291 292 293 293 294 294 295 295 296 297 297 298 298 299 299 300 300 301 301 301 301 301 301 301 301 300 300 299 298 297 295 294 292 290
297 297 297 297 296 296 296 295 295 295 295 294 293 292 291 288 284 280 276 272 269 266 263 261 262 265 268 272 275 277 278 278 278 279 281 281 281 282 285 288 289 289 289 290 290 291 290 289 288 288 288 289 290 291 292 293 294 294 295 295 296 296 297 298 298 298 299 299 299 299 299 299 299 299 299 299 299 299 299 298 297 296 295 294 292 291
298 297 297 297 296 296 295 295 295 294 294 293 292 290 287 283 279 275 270 266 262 259 258 259 261 264 268 271 274 277 278 278 279 280 283 284 284 284 286 288 289 289 288 287 287 288 287 286 285 285 286 288 289 291 292 293 293 294 295 295 296 296 297 297 297 297 297 297 297 297 297 297 298 298 298 298 299 299 299 298 298 297 296 295 293 292
298 297 297 296 296 295 294 294 293 293 292 290 288 286 282 279 275 270 264 261 258 257 257 258 260 263 267 270 272 275 277 278 279 281 284 286 286 287 287 289 289 288 287 285 284 285 285 283 282 283 284 286 288 290 291 292 293 293 294 295 295 296 296 296 296 296 296 296 296 296 297 297 297 298 298 298 299 299 299 299 298 298 297 296 295 293
298 297 297 296 295 294 293 292 291 290 289 287 284 281 277 274 270 266 262 260 258 258 258 259 261 263 266 269 271 273 275 277 280 282 285 287 288 288 288 288 288 288 287 285 284 284 285 283 282 282 283 285 287 289 290 290 291 292 293 293 294 294 294 294 295 295 295 295 296 296 297 297 297 297 298 298 299 299 299 299 299 298 297 297 296 295
297 297 296 295 294 293 292 291 290 288 286 283 279 275 271 268 264 260 259 258 258 258 259 260 261 263 266 267 270 272 274 277 279 282 285 287 288 289 289 288 288 288 288 287 287 286 285 284 283 283 283 285 287 288 289 289 290 291 291 292 293 293 294 294 294 295 295 295 296 296 296 296 296 296 297 297 298 298 299 299 298 298 297 297 296 295
297 296 295 294 293 291 291 290 288 286 284 279 274 269 265 261 258 256 256 256 257 258 260 261 262 263 265 266 268 270 273 275 278 282 284 286 288 289 289 288 288 289 290 290 289 286 282 281 283 284 285 286 287 288 289 289 290 290 291 292 293 293 294 294 294 294 295 295 295 295 295 295 295 295 296 296 297 297 297 298 297 297 297 296 295 295
296 294 293 291 290 289 287 286 285 283 280 275 270 264 259 256 254 253 254 255 257 258 260 261 262 263 264 265 267 268 270 274 278 281 284 286 287 288 288 288 288 290 291 292 292 290 283 278 280 284 287 289 290 291 291 291 291 291 292 292 293 293 294 294 294 294 294 295 295 295 295 295 295 295 295 295 296 296 297 297 297 296 296 295 294 293
294 292 290 288 286 285 283 282 280 278 275 270 264 259 256 253 252 253 254 256 258 259 260 261 262 263 263 265 266 267 268 272 276 281 283 285 286 287 287 288 289 291 293 294 296 296 294 288 284 286 289 292 293 294 294 294 293 293 293 293 293 293 293 293 294 294 294 295 295 296 296 295 295 295 295 295 296 296 297 297 296 296 295 294 293 291
293 290 288 286 284 282 280 278 275 273 269 265 260 256 253 252 252 253 255 257 258 259 260 261 261 262 263 264 266 267 267 270 273 278 281 283 285 286 288 289 290 292 293 295 298 299 300 299 297 295 294 295 295 296 295 295 294 295 295 294 294 294 294 294 294 294 295 295 296 296 296 296 296 296 296 296 296 297 297 297 297 296 295 294 292 291
291 289 287 284 282 280 277 275 272 268 265 260 257 254 253 252 253 254 256 257 258 259 260 261 261 262 263 264 265 266 267 269 273 277 280 282 284 287 288 290 291 293 294 296 298 300 301 303 303 302 301 299 298 298 297 296 296 296 296 296 296 295 295 294 294 295 295 296 296 297 297 296 296 296 296 296 296 297 297 297 297 296 295 294 293 292
291 288 286 283 280 278 275 272 269 265 261 258 255 254 253 254 255 256 257 258 258 259 259 260 262 262 263 263 263 264 265 269 273 277 281 283 285 287 289 291 292 293 294 296 298 299 301 303 304 304 304 303 301 300 299 298 298 298 298 298 298 297 297 296 296 296 296 297 297 297 297 296 296 295 295 295 295 296 296 296 296 296 295 294 293 292
290 287 285 282 279 275 272 269 266 262 259 257 255 255 255 256 257 258 259 259 259 259 259 260 260 261 262 263 263 263 265 268 273 278 281 284 286 288 290 291 293 294 295 297 298 300 301 302 303 304 304 304 303 302 301 301 301 301 301 301 300 300 299 298 298 298 298 298 298 297 296 296 295 294 294 294 294 295 296 296 296 295 294 293 293 292
289 286 284 281 277 273 270 266 263 260 258 257 256 256 257 258 259 260 260 261 260 260 260 260 260 260 261 262 264 265 267 270 274 278 281 284 287 288 290 292 294 295 296 298 299 300 301 302 303 303 304 304 305 305 304 304 304 304 304 303 303 302 301 300 299 299 299 298 298 297 296 295 294 294 294 294 294 295 296 296 296 295 295 294 293 292
289 286 283 280 276 272 268 265 262 259 258 257 257 258 259 259 260 261 261 261 260 260 260 260 260 260 262 263 266 268 270 272 275 278 281 284 287 289 291 293 294 296 297 298 299 300 301 302 303 303 304 304 305 306 307 307 307 307 306 305 304 303 302 301 300 300 299 298 298 297 296 295 294 294 294 294 295 295 296 296 296 296 296 295 294 294
289 286 282 279 275 271 267 263 261 259 258 257 258 258 259 260 260 260 260 260 259 259 259 259 260 261 262 265 267 269 272 274 276 279 282 285 287 289 292 293 295 296 297 298 299 300 301 302 303 304 304 305 305 307 308 309 310 309 308 306 305 303 302 302 301 300 299 299 298 297 296 295 295 295 295 295 295 296 296 296 296 296 296 295 295 294
289 286 282 279 275 271 267 264 261 260 259 258 259 259 259 260 260 259 259 259 258 258 258 258 260 261 263 265 268 270 273 275 278 281 283 286 288 291 292 294 295 296 297 298 299 300 301 302 303 304 305 306 306 308 309 311 311 310 309 307 305 303 302 302 301 301 300 299 298 298 297 296 295 295 295 296 296 296 297 297 297 296 296 295 294 293
290 286 282 279 276 272 268 264 262 261 260 260 260 260 260 260 260 260 259 259 259 259 259 260 261 262 264 266 269 272 274 277 280 283 286 288 290 292 294 295 296 297 298 298 299 300 301 302 303 304 305 306 307 308 310 311 311 310 308 307 305 303 302 302 302 301 300 299 298 298 297 296 296 296 296 297 297 298 298 298 298 297 297 296 294 292
291 287 283 280 277 273 269 266 264 263 262 261 261 261 261 261 261 261 261 261 261 261 262 262 263 264 266 268 271 274 277 280 283 285 288 290 292 294 295 296 297 298 298 299 300 301 302 303 303 305 305 306 307 308 309 310 310 309 307 306 304 302 301 302 302 301 300 300 299 298 298 297 297 297 297 298 298 298 298 298 298 298 297 296 294 293
291 288 285 281 278 274 271 268 266 264 263 263 263 262 262 262 262 262 262 262 263 264 264 265 266 267 268 270 273 276 279 282 285 287 289 291 293 294 295 296 297 298 299 300 300 301 302 303 304 304 305 305 306 307 308 309 309 308 306 305 304 303 303 303 302 301 300 300 300 299 298 298 298 298 299 299 299 299 298 298 298 297 296 295 293 292
291 288 285 282 278 275 272 270 268 266 265 264 264 264 264 264 264 264 264 264 264 265 266 267 268 269 270 272 275 277 280 283 286 288 290 292 293 294 295 296 297 298 299 300 301 301 302 302 303 304 304 305 306 307 308 308 308 307 306 305 304 304 304 304 303 302 301 300 300 299 299 298 298 299 299 299 299 299 298 298 297 296 294 293 291 290
291 288 285 282 279 276 273 271 269 267 266 265 265 265 266 266 266 265 266 266 266 267 267 269 270 271 273 275 277 279 281 284 286 288 290 291 293 294 295 296 297 298 299 300 301 301 302 303 303 304 304 305 306 307 308 308 308 307 306 305 305 304 304 304 303 302 301 300 299 299 298 299 299 299 299 299 299 299 298 297 296 294 292 290 288 286
292 288 285 282 279 276 274 272 270 268 267 267 266 267 267 267 267 267 268 268 268 269 269 271 272 274 276 278 279 281 283 285 287 288 290 291 292 294 295 296 297 298 299 300 301 302 302 303 304 304 304 305 306 307 308 308 308 307 306 305 304 304 303 303 302 301 301 300 299 299 298 298 299 299 299 299 298 298 297 297 296 294 292 289 286 283
292 289 286 283 280 277 274 272 270 269 268 268 267 268 268 269 269 270 270 270 271 272 272 274 275 278 280 281 283 284 285 286 288 289 290 291 292 294 295 296 298 299 300 300 301 301 302 303 303 304 305 306 306 307 307 307 307 306 305 305 304 303 302 302 301 300 299 298 298 298 297 297 298 298 298 297 297 297 297 297 296 295 293 290 287 284
293 290 286 283 280 278 275 273 271 269 268 268 268 269 269 270 271 272 272 273 273 274 276 277 279 281 283 285 287 288 289 289 290 290 291 292 293 294 295 297 298 298 299 299 300 301 301 302 303 304 305 305 306 306 306 305 305 304 304 303 302 301 300 300 299 298 297 297 297 296 296 297 297 297 297 297 297 298 299 299 299 299 297 294 290 287
294 291 288 285 282 279 276 274 272 270 269 269 269 270 271 272 273 273 274 275 276 277 279 281 283 285 287 288 290 291 291 292 292 293 293 294 295 296 296 297 298 298 298 299 299 300 300 301 302 303 304 304 304 304 303 303 303 302 302 302 301 300 299 298 298 297 296 296 296 296 296 297 298 298 299 299 300 301 302 303 304 304 302 299 296 291
295 292 289 286 283 280 277 275 273 271 270 270 270 271 272 273 274 276 277 278 279 281 282 284 286 288 290 291 292 293 293 294 294 295 296 296 297 298 298 298 299 299 298 299 299 299 299 300 301 302 303 303 303 302 302 302 302 301 301 301 301 300 299 298 298 297 297 296 296 296 297 298 299 300 301 302 303 304 305 307 308 308 307 304 300 296
295 293 290 287 284 281 278 276 274 273 272 272 272 273 274 275 276 278 279 280 282 284 285 287 289 290 291 292 293 294 294 295 296 297 298 298 299 299 300 300 300 299 299 299 299 299 299 300 300 301 302 303 302 302 302 302 302 302 302 301 301 300 299 299 298 298 297 297 297 298 299 300 301 303 305 306 306 307 307 308 310 311 310 307 303 300
Height
3043 3044 3044 3044 3044 3044 3044 3044 3044 3045 3045 3046 3046 3046 3045 3045 3046 3046 3046 3046 3045 3045 3045 3045 3045 3045 3045 3044 3044 3044 3043 3043 3042 3042 3042 3042 3041 3041 3041 3040 3040 3039 3039 3039 3038 3038 3037 3037 3037 3037 3036 3036 3035 3034 3033 3033 3032 3032 3031 3030 3029 3029 3028 3027 3027 3026 3026 3026 3025 3025 3024 3024 3024 3023 3023 3023 3022 3022 3022 3022 3021 3021 3021 3021 3021 3020
3041 3042 3042 3041 3041 3041 3041 3041 3042 3042 3042 3043 3043 3043 3043 3043 3043 3043 3043 3042 3042 3042 3042 3042 3042 3042 3042 3042 3041 3041 3040 3040 3039 3039 3039 3038 3038 3038 3037 3037 3036 3036 3036 3035 3035 3035 3034 3034 3033 3033 3032 3032 3031 3030 3030 3029 3028 3027 3027 3026 3025 3025 3024 3023 3023 3022 3022 3022 3021 3021 3020 3020 3020 3019 3019 3019 3018 3018 3018 3017 3017 3017 3017 3017 3016 3016
3039 3039 3039 3038 3038 3038 3038 3038 3038 3039 3039 3040 3040 3040 3040 3040 3040 3040 3040 3039 3039 3039 3039 3039 3039 3039 3039 3038 3038 3038 3037 3037 3037 3036 3036 3035 3035 3035 3034 3034 3033 3033 3032 3032 3032 3031 3031 3030 3030 3029 3029 3028 3027 3027 3026 3025 3024 3023 3023 3022 3021 3021 3020 3019 3019 3018 3018 3017 3017 3017 3017 3016 3016 3016 3015 3015 3014 3014 3013 3013 3013 3012 3012 3012 3012 3012
3037 3036 3036 3036 3036 3036 3036 3036 3036 3036 3036 3037 3037 3037 3037 3037 3037 3037 3037 3037 3037 3037 3037 3037 3037 3036 3036 3036 3035 3035 3034 3034 3033 3033 3033 3032 3032 3032 3031 3030 3030 3029 3029 3028 3028 3027 3027 3026 3026 3025 3025 3024 3023 3022 3022 3021 3020 3020 3019 3018 3017 3017 3016 3016 3015 3014 3014 3014 3013 3013 3012 3012 3012 3012 3011 3011 3010 3010 3010 3009 3009 3008 3008 3008 3008 3008
3034 3033 3033 3033 3033 3033 3033 3033 3033 3033 3033 3034 3034 3034 3035 3035 3035 3035 3035 3035 3035 3035 3034 3034 3034 3034 3033 3033 3032 3032 3032 3031 3030 3030 3030 3029 3029 3028 3027 3027 3026 3026 3025 3024 3024 3023 3023 3022 3022 3021 3021 3020 3019 3018 3018 3017 3016 3015 3015 3014 3013 3013 3012 3012 3011 3011 3010 3010 3010 3009 3009 3008 3008 3007 3007 3007 3006 3006 3006 3005 3005 3004 3004 3004 3004 3004
3032 3031 3031 3031 3031 3031 3031 3031 3031 3031 3031 3031 3032 3032 3032 3033 3033 3033 3033 3033 3033 3032 3032 3032 3032 3031 3031 3030 3029 3029 3028 3028 3027 3027 3026 3026 3025 3024 3024 3023 3022 3022 3021 3021 3020 3019 3019 3018 3018 3017 3017 3016 3015 3014 3013 3012 3012 3011 3011 3010 3009 3009 3008 3008 3007 3007 3007 3006 3006 3006 3005 3005 3004 3004 3003 3003 3002 3002 3002 3002 3001 3001 3001 3001 3000 3000
3029 3029 3029 3029 3029 3029 3029 3029 3029 3029 3029 3029 3029 3030 3030 3031 3031 3031 3031 3031 3030 3030 3030 3029 3029 3028 3027 3027 3026 3026 3025 3024 3024 3023 3022 3022 3022 3021 3020 3019 3019 3018 3017 3017 3016 3016 3015 3014 3014 3013 3012 3012 3011 3010 3009 3008 3007 3007 3007 3006 3006 3005 3005 3004 3004 3004 3003 3003 3002 3002 3002 3001 3001 3000 3000 3000 2999 2999 2999 2998 2998 2998 2998 2998 2997 2997
3027 3027 3027 3027 3027 3027 3027 3027 3027 3027 3027 3027 3027 3028 3028 3028 3028 3028 3028 3028 3028 3027 3027 3027 3026 3025 3025 3024 3023 3022 3022 3021 3020 3020 3019 3019 3018 3017 3017 3016 3015 3014 3014 3013 3012 3012 3011 3010 3010 3009 3008 3007 3007 3006 3005 3004 3004 3003 3003 3002 3002 3002 3002 3001 3001 3001 3000 3000 2999 2999 2999 2998 2998 2997 2997 2997 2997 2996 2996 2996 2996 2995 2995 2995 2995 2994
3026 3026 3026 3026 3026 3026 3025 3025 3025 3025 3025 3026 3026 3026 3026 3026 3026 3026 3026 3026 3025 3025 3024 3024 3023 3022 3021 3021 3020 3019 3018 3017 3017 3017 3016 3015 3015 3014 3013 3012 3012 3011 3010 3009 3009 3008 3007 3007 3006 3005 3004 3003 3002 3002 3001 3001 3000 3000 3000 2999 2999 2999 2998 2998 2998 2997 2997 2997 2997 2996 2996 2996 2995 2995 2995 2994 2994 2994 2993 2993 2993 2993 2992 2992 2992 2992
3024 3024 3024 3024 3024 3024 3024 3023 3023 3023 3024 3024 3024 3024 3024 3024 3024 3023 3023 3023 3022 3022 3022 3021 3020 3019 3018 3017 3016 3015 3015 3014 3014 3013 3013 3012 3011 3010 3009 3009 3008 3007 3007 3006 3005 3004 3003 3003 3002 3001 3001 3000 2999 2999 2998 2998 2997 2997 2997 2997 2997 2996 2996 2996 2995 2995 2995 2994 2994 2994 2993 2993 2993 2992 2992 2992 2991 2991 2991 2990 2990 2990 2990 2989 2989 2989
3022 3022 3022 3022 3022 3022 3022 3022 3022 3022 3022 3022 3022 3022 3022 3022 3022 3021 3021 3020 3019 3019 3018 3017 3017 3016 3015 3014 3013 3012 3011 3011 3010 3010 3009 3008 3007 3007 3006 3005 3005 3004 3003 3002 3002 3001 3000 2999 2999 2998 2997 2997 2997 2996 2996 2995 2995 2995 2995 2994 2994 2994 2993 2993 2993 2992 2992 2992 2991 2991 2991 2990 2990 2989 2989 2989 2988 2988 2988 2987 2987 2987 2987 2987 2986 2986
3020 3020 3021 3021 3021 3021 3021 3021 3020 3020 3020 3020 3020 3020 3019 3019 3019 3018 3018 3017 3017 3016 3015 3014 3013 3012 3012 3011 3010 3009 3008 3007 3007 3006 3005 3004 3003 3003 3002 3002 3002 3001 3000 2999 2999 2998 2997 2997 2996 2996 2995 2995 2994 2994 2993 2993 2993 2992 2992 2992 2992 2991 2991 2990 2990 2990 2989 2989 2988 2988 2987 2987 2987 2986 2986 2986 2985 2985 2985 2984 2984 2984 2983 2983 2983 2983
3019 3019 3019 3019 3019 3019 3019 3019 3018 3018 3018 3018 3017 3017 3017 3016 3015 3015 3015 3014 3013 3013 3012 3011 3010 3009 3008 3007 3006 3006 3005 3005 3004 3003 3002 3001 3000 3000 3000 2999 2999 2998 2997 2997 2996 2995 2995 2994 2994 2993 2993 2992 2992 2992 2991 2991 2990 2990 2989 2989 2989 2988 2988 2987 2987 2986 2986 2985 2985 2984 2984 2984 2983 2983 2983 2982 2982 2982 2982 2981 2981 2981 2980 2980 2980 2980
3018 3018 3018 3017 3017 3017 3017 3017 3016 3016 3015 3015 3015 3014 3013 3013 3012 3012 3012 3011 3010 3010 3009 3008 3007 3006 3005 3004 3003 3002 3002 3002 3001 3000 2999 2998 2997 2997 2997 2997 2996 2995 2995 2994 2993 2993 2992 2992 2992 2991 2991 2990 2990 2989 2989 2988 2987 2987 2987 2986 2986 2985 2984 2984 2983 2983 2982 2982 2982 2982 2981 2981 2980 2980 2980 2980 2979 2979 2978 2978 2978 2977 2977 2977 2977 2977
3017 3016 3016 3016 3015 3015 3015 3014 3014 3013 3012 3012 3012 3011 3010 3010 3009 3009 3009 3008 3007 3007 3006 3005 3004 3003 3002 3000 2999 2998 2999 2998 2998 2997 2997 2996 2995 2995 2995 2994 2994 2993 2992 2992 2991 2991 2991 2990 2990 2989 2988 2988 2987 2987 2986 2985 2985 2984 2984 2983 2982 2982 2982 2981 2981 2980 2980 2979 2979 2979 2978 2978 2978 2977 2977 2977 2976 2976 2976 2975 2975 2974 2974 2974 2974 2973
3015 3015 3014 3014 3013 3013 3012 3012 3011 3011 3010 3009 3009 3008 3007 3007 3007 3006 3006 3005 3004 3004 3003 3002 3001 3000 2998 2997 2996 2995 2996 2996 2996 2995 2994 2993 2993 2993 2993 2992 2992 2991 2991 2990 2989 2989 2989 2988 2988 2987 2987 2986 2985 2984 2984 2983 2982 2982 2982 2981 2980 2980 2979 2979 2978 2978 2977 2977 2977 2976 2976 2976 2975 2975 2974 2974 2974 2973 2973 2972 2972 2972 2972 2971 2971 2971
3013 3013 3012 3012 3011 3010 3009 3009 3008 3008 3007 3007 3006 3005 3005 3004 3003 3003 3002 3002 3001 3000 2999 2998 2998 2997 2996 2994 2992 2992 2993 2993 2993 2993 2992 2992 2991 2991 2991 2990 2990 2989 2989 2988 2988 2987 2987 2987 2986 2985 2985 2984 2983 2983 2982 2982 2981 2980 2980 2979 2979 2978 2977 2977 2976 2976 2975 2975 2974 2974 2974 2973 2973 2972 2972 2972 2972 2971 2971 2970 2970 2969 2969 2968 2968 2968
3011 3010 3010 3009 3008 3007 3007 3006 3006 3005 3004 3003 3003 3002 3001 3000 3000 2999 2998 2998 2997 2996 2995 2995 2994 2994 2993 2992 2990 2990 2991 2992 2991 2991 2990 2989 2989 2989 2989 2988 2988 2987 2987 2987 2986 2986 2985 2985 2984 2984 2983 2982 2982 2981 2981 2980 2979 2979 2978 2977 2977 2976 2976 2975 2974 2974 2973 2973 2972 2972 2972 2971 2971 2970 2970 2969 2969 2968 2968 2967 2967 2967 2966 2966 2965 2965
3008 3008 3007 3007 3006 3005 3004 3003 3002 3002 3001 3000 2999 2998 2998 2997 2996 2995 2995 2994 2993 2993 2992 2992 2991 2991 2990 2990 2989 2989 2990 2990 2989 2989 2988 2987 2987 2987 2987 2987 2986 2986 2986 2985 2985 2984 2984 2983 2983 2982 2982 2981 2981 2980 2979 2979 2978 2977 2977 2976 2975 2974 2974 2973 2972 2972 2971 2971 2970 2970 2969 2969 2968 2968 2967 2967 2967 2966 2965 2965 2964 2964 2963 2963 2962 2962
3006 3005 3004 3004 3003 3002 3002 3001 3000 2999 2998 2997 2996 2995 2994 2993 2992 2992 2991 2991 2990 2990 2989 2989 2989 2988 2988 2988 2987 2987 2988 2987 2987 2987 2986 2986 2985 2985 2985 2985 2985 2984 2984 2984 2983 2983 2983 2982 2982 2981 2981 2980 2979 2978 2978 2977 2976 2976 2975 2974 2973 2972 2972 2971 2970 2970 2969 2968 2968 2967 2967 2966 2966 2966 2965 2965 2964 2963 2963 2962 2962 2961 2961 2960 2960 2959
3003 3002 3002 3001 3001 3000 2999 2997 2997 2996 2995 2994 2993 2992 2992 2991 2990 2989 2989 2988 2988 2987 2987 2987 2987 2987 2986 2986 2986 2985 2986 2986 2985 2985 2985 2984 2984 2984 2984 2984 2983 2983 2982 2982 2982 2982 2981 2981 2980 2980 2979 2978 2977 2977 2976 2975 2974 2974 2973 2972 2971 2970 2970 2969 2968 2967 2967 2966 2966 2965 2964 2964 2963 2963 2962 2962 2961 2961 2960 2959 2959 2958 2958 2957 2957 2956
3000 2999 2998 2998 2997 2997 2996 2994 2993 2992 2992 2991 2990 2990 2989 2988 2987 2987 2987 2986 2986 2986 2985 2985 2985 2985 2984 2984 2983 2983 2984 2984 2984 2984 2984 2983 2983 2982 2983 2982 2982 2982 2981 2981 2981 2980 2980 2979 2979 2978 2977 2976 2976 2975 2974 2973 2972 2972 2971 2970 2969 2968 2967 2967 2966 2965 2965 2964 2963 2962 2962 2961 2961 2960 2959 2959 2958 2958 2957 2957 2956 2955 2955 2954 2954 2953
2997 2996 2995 2994 2993 2993 2992 2991 2990 2989 2989 2988 2987 2987 2986 2986 2985 2985 2984 2984 2984 2984 2984 2983 2983 2983 2982 2982 2982 2982 2982 2982 2982 2982 2982 2982 2982 2981 2981 2981 2981 2980 2980 2980 2979 2979 2978 2978 2977 2976 2975 2974 2974 2973 2972 2972 2971 2970 2969 2968 2967 2967 2966 2965 2964 2963 2962 2962 2961 2960 2959 2959 2958 2957 2957 2956 2956 2955 2954 2953 2953 2952 2952 2951 2951 2950
2994 2993 2992 2991 2990 2989 2989 2988 2987 2986 2986 2985 2985 2984 2984 2983 2983 2983 2982 2982 2982 2982 2982 2982 2981 2981 2980 2980 2980 2980 2980 2980 2980 2981 2981 2981 2980 2980 2980 2980 2979 2979 2978 2978 2978 2977 2977 2976 2975 2974 2974 2973 2972 2972 2971 2970 2969 2968 2967 2966 2966 2965 2964 2963 2962 2961 2960 2959 2959 2958 2957 2956 2956 2955 2954 2953 2953 2952 2952 2951 2950 2949 2949 2948 2947 2947
2991 2990 2989 2988 2987 2986 2986 2985 2984 2983 2983 2982 2982 2982 2982 2981 2981 2981 2980 2980 2980 2980 2980 2980 2979 2979 2978 2978 2978 2978 2978 2978 2978 2978 2979 2979 2979 2978 2978 2978 2977 2977 2977 2977 2976 2976 2975 2975 2974 2973 2972 2971 2971 2970 2969 2968 2967 2967 2966 2965 2964 2963 2962 2961 2960 2959 2958 2957 2957 2956 2955 2954 2953 2952 2952 2951 2950 2949 2949 2948 2947 2947 2946 2945 2945 2944
2988 2987 2986 2985 2985 2984 2983 2982 2982 2981 2981 2980 2980 2980 2979 2979 2979 2979 2979 2978 2978 2978 2978 2978 2978 2977 2977 2977 2977 2977 2976 2976 2976 2977 2977 2977 2977 2977 2976 2976 2976 2976 2975 2975 2975 2974 2974 2973 2972 2972 2971 2970 2969 2969 2968 2967 2966 2965 2964 2963 2962 2961 2960 2959 2958 2957 2957 2956 2955 2954 2953 2952 2951 2950 2949 2948 2948 2947 2946 2945 2944 2943 2943 2942 2942 2941
2986 2985 2984 2983 2982 2982 2981 2980 2980 2979 2979 2978 2978 2978 2977 2977 2977 2977 2977 2977 2977 2977 2977 2977 2977 2976 2976 2976 2976 2975 2975 2974 2974 2975 2975 2975 2975 2975 2975 2974 2974 2974 2974 2974 2973 2973 2973 2972 2971 2970 2970 2969 2968 2967 2967 2966 2965 2964 2962 2962 2961 2960 2958 2957 2957 2956 2955 2953 2952 2952 2951 2950 2949 2948 2947 2946 2945 2944 2943 2942 2941 2940 2940 2939 2938 2938
2983 2982 2982 2981 2980 2979 2979 2978 2978 2977 2977 2977 2976 2976 2976 2975 2975 2975 2975 2975 2975 2975 2975 2975 2975 2975 2975 2974 2974 2974 2973 2973 2972 2973 2973 2973 2973 2973 2973 2972 2972 2972 2972 2972 2972 2972 2971 2971 2970 2969 2968 2967 2967 2966 2965 2964 2963 2962 2961 2960 2959 2958 2957 2956 2955 2953 2952 2951 2950 2949 2948 2947 2946 2945 2944 2943 2942 2941 2940 2939 2938 2937 2937 2936 2936 2935
2981 2980 2979 2978 2978 2977 2977 2976 2976 2975 2975 2975 2974 2974 2974 2974 2974 2973 2973 2973 2974 2974 2974 2974 2974 2973 2973 2973 2973 2972 2972 2971 2971 2971 2971 2971 2972 2972 2971 2971 2970 2970 2970 2970 2970 2970 2970 2969 2968 2967 2967 2966 2966 2965 2964 2963 2962 2961 2960 2959 2958 2957 2955 2954 2953 2952 2950 2949 2948 2947 2946 2945 2944 2943 2942 2941 2940 2939 2938 2937 2936 2935 2934 2933 2932 2932
2979 2978 2977 2977 2976 2975 2974 2974 2973 2973 2973 2973 2973 2972 2972 2972 2972 2972 2972 2972 2972 2972 2972 2972 2972 2972 2972 2972 2971 2971 2970 2969 2969 2969 2969 2970 2970 2970 2970 2969 2969 2968 2968 2968 2968 2968 2968 2968 2967 2966 2966 2965 2964 2963 2962 2962 2960 2959 2958 2957 2956 2955 2953 2952 2951 2950 2948 2947 2946 2945 2944 2942 2941 2940 2939 2938 2937 2937 2935 2934 2933 2932 2931 2931 2930 2929
2977 2977 2976 2975 2974 2973 2972 2972 2972 2972 2971 2971 2971 2971 2971 2971 2971 2971 2971 2971 2971 2971 2971 2971 2971 2970 2970 2970 2970 2969 2969 2968 2967 2967 2967 2968 2968 2968 2968 2967 2967 2967 2966 2966 2966 2966 2967 2967 2966 2965 2964 2963 2962 2962 2961 2960 2958 2957 2957 2956 2954 2953 2952 2950 2949 2947 2946 2945 2944 2942 2941 2940 2939 2938 2937 2936 2935 2934 2933 2932 2931 2930 2929 2928 2927 2927
2975 2975 2974 2973 2972 2972 2971 2971 2970 2970 2970 2970 2970 2970 2969 2969 2969 2969 2969 2969 2969 2969 2969 2969 2969 2969 2969 2969 2968 2968 2967 2967 2966 2966 2966 2966 2966 2966 2966 2966 2965 2964 2964 2963 2963 2963 2964 2964 2964 2963 2963 2962 2961 2960 2959 2958 2957 2955 2954 2953 2952 2951 2950 2948 2947 2945 2944 2943 2942 2940 2939 2938 2937 2935 2934 2933 2932 2932 2931 2929 2928 2927 2926 2925 2925 2924
2974 2973 2972 2972 2971 2970 2970 2969 2969 2968 2968 2968 2968 2968 2968 2968 2968 2968 2967 2967 2967 2967 2967 2967 2967 2967 2967 2967 2967 2967 2966 2965 2965 2964 2964 2964 2964 2964 2964 2964 2963 2962 2962 2961 2961 2960 2960 2960 2961 2961 2961 2960 2959 2958 2957 2956 2954 2953 2952 2951 2950 2949 2947 2946 2944 2943 2942 2941 2939 2938 2937 2935 2934 2933 2932 2931 2930 2929 2928 2927 2926 2925 2923 2922 2922 2922
2972 2971 2971 2970 2969 2968 2968 2967 2967 2967 2967 2967 2967 2967 2967 2966 2966 2966 2966 2966 2966 2966 2966 2966 2966 2966 2966 2966 2966 2965 2965 2964 2963 2963 2963 2962 2962 2962 2962 2962 2961 2960 2960 2959 2958 2958 2957 2957 2957 2957 2957 2957 2957 2956 2955 2953 2952 2951 2950 2949 2948 2947 2945 2944 2942 2941 2939 2938 2937 2936 2934 2933 2932 2931 2929 2928 2927 2927 2926 2925 2923 2922 2921 2920 2919 2918
2970 2970 2969 2968 2967 2967 2966 2966 2966 2965 2965 2965 2965 2965 2965 2965 2965 2965 2965 2964 2964 2965 2965 2965 2964 2964 2964 2964 2964 2964 2963 2962 2962 2961 2961 2961 2961 2960 2960 2960 2959 2958 2957 2957 2956 2956 2955 2954 2954 2954 2953 2954 2954 2954 2953 2951 2950 2949 2948 2947 2945 2944 2942 2941 2939 2938 2937 2935 2934 2933 2932 2930 2929 2928 2927 2926 2925 2924 2923 2922 2921 2920 2919 2917 2917 2916
2969 2968 2967 2967 2966 2965 2965 2964 2964 2964 2964 2964 2963 2963 2963 2963 2963 2963 2963 2963 2963 2963 2963 2963 2963 2963 2963 2962 2962 2962 2962 2961 2960 2959 2959 2959 2958 2958 2958 2957 2957 2956 2955 2954 2954 2953 2952 2952 2952 2951 2950 2950 2950 2950 2950 2949 2948 2947 2945 2944 2943 2941 2940 2938 2937 2935 2934 2933 2932 2930 2929 2928 2927 2926 2925 2924 2923 2922 2921 2920 2919 2917 2916 2915 2914 2913
2967 2966 2966 2965 2964 2964 2963 2963 2963 2962 2962 2962 2962 2962 2962 2962 2962 2962 2962 2962 2962 2962 2962 2962 2961 2961 2961 2961 2961 2960 2960 2959 2958 2958 2957 2957 2956 2956 2956 2955 2955 2954 2953 2952 2951 2951 2950 2949 2949 2948 2947 2947 2946 2946 2946 2946 2945 2944 2943 2942 2940 2939 2937 2936 2934 2932 2931 2930 2929 2928 2927 2925 2924 2923 2922 2922 2921 2920 2919 2918 2917 2915 2914 2913 2912 2911
2966 2965 2964 2963 2963 2962 2962 2962 2961 2961 2961 2961 2961 2961 2961 2960 2960 2960 2960 2960 2960 2960 2960 2960 2960 2960 2960 2959 2959 2958 2958 2957 2957 2956 2955 2955 2954 2954 2953 2953 2952 2952 2951 2949 2949 2948 2947 2946 2946 2945 2945 2944 2943 2943 2942 2942 2941 2941 2940 2938 2937 2936 2934 2933 2932 2930 2929 2927 2926 2925 2924 2922 2922 2921 2920 2919 2918 2917 2917 2915 2914 2913 2912 2910 2909 2908
2964 2963 2962 2962 2962 2961 2961 2960 2960 2960 2960 2959 2959 2959 2959 2959 2959 2959 2959 2959 2959 2959 2959 2958 2958 2958 2958 2957 2957 2957 2956 2955 2955 2954 2953 2953 2952 2952 2951 2951 2950 2949 2948 2947 2946 2945 2944 2944 2943 2942 2941 2941 2940 2940 2939 2938 2937 2937 2936 2935 2934 2933 2932 2931 2929 2927 2926 2925 2923 2922 2921 2920 2919 2918 2917 2917 2916 2915 2914 2913 2912 2910 2909 2908 2907 2906
2962 2962 2961 2961 2960 2960 2959 2959 2959 2958 2958 2958 2958 2958 2958 2958 2958 2958 2957 2957 2957 2957 2957 2957 2957 2957 2956 2956 2955 2955 2954 2953 2953 2952 2951 2951 2950 2949 2949 2948 2947 2947 2946 2945 2944 2943 2942 2941 2940 2939 2938 2937 2937 2936 2936 2935 2934 2933 2932 2931 2931 2930 2930 2928 2927 2925 2923 2922 2921 2919 2918 2917 2917 2916 2915 2914 2913 2912 2912 2910 2909 2908 2907 2906 2905 2904
2961 2960 2959 2959 2959 2958 2958 2958 2957 2957 2957 2957 2957 2957 2957 2957 2957 2956 2956 2956 2956 2956 2956 2955 2955 2955 2955 2954 2954 2953 2952 2952 2951 2950 2949 2948 2947 2947 2946 2945 2945 2944 2943 2942 2942 2940 2939 2938 2937 2937 2936 2934 2933 2933 2933 2932 2932 2930 2929 2928 2927 2927 2926 2926 2924 2922 2921 2919 2918 2917 2916 2915 2914 2913 2912 2912 2911 2910 2909 2907 2907 2906 2904 2903 2902 2902
2959 2958 2958 2957 2957 2957 2957 2957 2956 2956 2956 2956 2956 2955 2955 2955 2955 2955 2955 2955 2954 2954 2954 2954 2953 2953 2953 2952 2952 2951 2950 2949 2949 2948 2947 2946 2945 2944 2943 2943 2942 2941 2940 2940 2939 2938 2937 2936 2935 2934 2933 2932 2931 2930 2930 2930 2929 2928 2926 2925 2924 2923 2923 2923 2922 2920 2918 2917 2916 2914 2913 2912 2911 2911 2910 2909 2908 2907 2906 2905 2904 2903 2902 2901 2900 2899
2957 2957 2957 2956 2956 2956 2955 2955 2955 2955 2954 2954 2954 2954 2954 2954 2953 2953 2953 2953 2953 2952 2952 2952 2952 2952 2951 2951 2950 2949 2948 2947 2947 2946 2945 2944 2943 2942 2941 2940 2939 2938 2937 2937 2936 2935 2934 2933 2932 2931 2930 2929 2928 2927 2927 2927 2926 2925 2924 2922 2921 2920 2919 2919 2919 2917 2916 2914 2913 2912 2911 2909 2908 2908 2907 2907 2906 2905 2904 2903 2902 2901 2899 2898 2897 2896
2956 2955 2955 2955 2954 2954 2954 2953 2953 2953 2953 2953 2952 2952 2952 2952 2952 2952 2952 2951 2951 2951 2951 2950 2950 2950 2949 2949 2948 2948 2947 2946 2945 2944 2943 2942 2941 2940 2939 2938 2937 2936 2935 2934 2933 2932 2932 2931 2930 2929 2928 2927 2926 2925 2924 2923 2923 2922 2921 2920 2918 2917 2916 2916 2915 2914 2913 2912 2911 2909 2908 2907 2906 2905 2905 2904 2903 2902 2902 2901 2899 2898 2897 2896 2895 2894
2954 2954 2953 2953 2953 2952 2952 2952 2952 2952 2951 2951 2951 2951 2951 2950 2950 2950 2950 2950 2949 2949 2949 2948 2948 2948 2947 2947 2947 2946 2945 2944 2943 2942 2941 2940 2939 2938 2937 2936 2935 2934 2932 2932 2931 2930 2929 2928 2927 2927 2925 2924 2923 2922 2921 2920 2919 2919 2918 2917 2916 2914 2913 2913 2912 2911 2910 2909 2908 2907 2906 2904 2903 2903 2902 2902 2901 2900 2899 2898 2897 2896 2895 2894 2893 2892
2953 2952 2952 2951 2951 2951 2950 2950 2950 2950 2950 2949 2949 2949 2949 2948 2948 2948 2948 2948 2947 2947 2947 2947 2946 2946 2946 2945 2944 2944 2943 2942 2942 2941 2939 2938 2937 2936 2935 2934 2932 2932 2930 2929 2928 2927 2926 2925 2924 2923 2922 2922 2921 2920 2919 2917 2916 2915 2915 2914 2913 2912 2911 2910 2909 2908 2907 2906 2905 2904 2903 2902 2901 2900 2899 2899 2898 2898 2897 2896 2895 2894 2893 2892 2891 2890
2951 2951 2950 2950 2949 2949 2949 2948 2948 2948 2948 2947 2947 2947 2947 2947 2947 2946 2946 2946 2946 2945 2945 2944 2944 2944 2943 2943 2942 2942 2941 2940 2940 2939 2938 2937 2935 2934 2933 2932 2931 2929 2928 2927 2926 2925 2924 2923 2922 2921 2920 2919 2918 2917 2917 2915 2914 2912 2912 2911 2910 2909 2908 2907 2907 2906 2904 2903 2902 2902 2901 2900 2899 2898 2897 2896 2896 2895 2895 2894 2893 2892 2891 2889 2888 2887
2950 2949 2948 2948 2948 2947 2947 2947 2947 2946 2946 2946 2946 2945 2945 2945 2945 2944 2944 2944 2943 2943 2942 2942 2942 2941 2941 2940 2940 2939 2938 2938 2937 2937 2936 2935 2933 2932 2931 2930 2928 2927 2926 2925 2923 2922 2921 2920 2919 2919 2917 2916 2915 2914 2914 2913 2912 2910 2909 2908 2907 2907 2906 2905 2904 2903 2902 2901 2900 2899 2898 2897 2896 2895 2894 2893 2893 2892 2892 2891 2891 2889 2888 2887 2886 2885
2948 2947 2947 2946 2946 2946 2945 2945 2945 2944 2944 2944 2944 2943 2943 2943 2943 2942 2942 2942 2941 2941 2940 2940 2940 2939 2938 2938 2937 2937 2936 2935 2935 2934 2933 2932 2931 2930 2929 2928 2927 2925 2924 2922 2921 2920 2919 2918 2917 2917 2916 2914 2913 2912 2911 2910 2909 2908 2907 2906 2905 2904 2903 2902 2901 2900 2899 2898 2897 2897 2896 2894 2893 2892 2891 2890 2889 2889 2889 2888 2888 2887 2886 2884 2883 2882
2946 2946 2945 2945 2944 2944 2943 2943 2943 2942 2942 2942 2942 2942 2941 2941 2941 2940 2940 2939 2939 2938 2938 2937 2937 2937 2936 2936 2935 2934 2933 2932 2932 2931 2930 2929 2928 2927 2926 2925 2924 2922 2921 2920 2919 2917 2917 2916 2915 2915 2914 2912 2910 2909 2908 2907 2907 2906 2905 2903 2902 2901 2900 2899 2898 2897 2896 2895 2894 2893 2892 2892 2890 2889 2888 2887 2886 2885 2885 2885 2884 2884 2883 2882 2881 2880
2944 2944 2943 2943 2942 2942 2941 2941 2941 2941 2940 2940 2940 2940 2939 2939 2939 2938 2938 2937 2937 2936 2936 2935 2935 2934 2934 2933 2932 2932 2931 2930 2929 2928 2927 2927 2926 2925 2923 2922 2921 2919 2918 2917 2916 2915 2914 2913 2913 2912 2912 2910 2908 2906 2905 2904 2903 2903 2902 2901 2900 2898 2897 2896 2895 2894 2893 2892 2891 2890 2889 2888 2887 2886 2885 2883 2882 2882 2881 2881 2881 2881 2880 2879 2878 2877